| time (UTC) | temp F | wind direction | speed MPH | gust MPH | rain 1hr in | rain 24hr in | rain mn in | humidity % | barometer mb |
| 20260905211407 | 77 | 203 | 0.0 | 0.0 | 0.00 | 0.00 | 0.00 | 68 | 1009.0 |
| 20260905210410 | 78 | 184 | 0.0 | 4.0 | 0.00 | 0.00 | 0.00 | 65 | 1009.0 |
| 20260905205418 | 80 | 171 | 0.0 | 6.0 | 0.00 | 0.00 | 0.00 | 60 | 1008.8 |
| 20260905203207 | 81 | 171 | 1.0 | 2.0 | 0.00 | 0.00 | 0.00 | 60 | 1008.5 |
| 20260905202155 | 81 | 134 | 0.0 | 5.0 | 0.00 | 0.00 | 0.00 | 57 | 1008.5 |
| 20260905201210 | 80 | 183 | 0.0 | 3.0 | 0.00 | 0.00 | 0.00 | 63 | 1008.5 |
| 20260905200215 | 78 | 150 | 0.0 | 3.0 | 0.00 | 0.00 | 0.00 | 63 | 1008.6 |
| 20260905195236 | 79 | 176 | 0.0 | 2.0 | 0.00 | 0.00 | 0.00 | 62 | 1008.5 |
| 20260905194211 | 80 | 144 | 0.0 | 6.0 | 0.00 | 0.00 | 0.00 | 59 | 1008.5 |
| 20260905193204 | 81 | 181 | 1.0 | 4.0 | 0.00 | 0.00 | 0.00 | 57 | 1008.5 |
| 20260905192137 | 81 | 150 | 0.0 | 5.0 | 0.00 | 0.00 | 0.00 | 57 | 1008.5 |
| 20260905191116 | 81 | 98 | 0.0 | 3.0 | 0.00 | 0.00 | 0.00 | 58 | 1008.5 |
| 20260905184906 | 80 | 295 | 0.0 | 2.0 | 0.00 | 0.00 | 0.00 | 58 | 1008.6 |
| 20260905183913 | 81 | 182 | 0.0 | 4.0 | 0.00 | 0.00 | 0.00 | 56 | 1008.6 |
| 20260905182921 | 81 | 207 | 0.0 | 6.0 | 0.00 | 0.00 | 0.00 | 55 | 1008.7 |
| 20260905181902 | 81 | 190 | 1.0 | 6.0 | 0.00 | 0.00 | 0.00 | 55 | 1008.8 |
| 20260905180834 | 81 | 195 | 0.0 | 5.0 | 0.00 | 0.00 | 0.00 | 60 | 1008.8 |
| 20260905174724 | 80 | 162 | 1.0 | 5.0 | 0.00 | 0.00 | 0.00 | 59 | 1009.0 |
| 20260905172607 | 79 | 113 | 1.0 | 5.0 | 0.00 | 0.00 | 0.00 | 61 | 1009.1 |
| 20260905171546 | 79 | 211 | 0.0 | 5.0 | 0.00 | 0.00 | 0.00 | 59 | 1009.1 |
| 20260905170542 | 80 | 187 | 0.0 | 6.0 | 0.00 | 0.00 | 0.00 | 60 | 1009.2 |
| 20260905165539 | 79 | 167 | 1.0 | 6.0 | 0.00 | 0.00 | 0.00 | 60 | 1009.3 |
| 20260905164541 | 79 | 119 | 1.0 | 6.0 | 0.00 | 0.00 | 0.00 | 62 | 1009.3 |
| 20260905163559 | 78 | 129 | 0.0 | 4.0 | 0.00 | 0.00 | 0.00 | 65 | 1009.3 |
| 20260905162551 | 78 | 146 | 1.0 | 6.0 | 0.00 | 0.00 | 0.00 | 65 | 1009.2 |
| 20260905160506 | 76 | 191 | 0.0 | 5.0 | 0.00 | 0.00 | 0.00 | 66 | 1009.2 |
| 20260905155448 | 77 | 210 | 0.0 | 4.0 | 0.00 | 0.00 | 0.00 | 67 | 1009.2 |
| 20260905154430 | 77 | 297 | 1.0 | 8.0 | 0.00 | 0.00 | 0.00 | 66 | 1009.2 |
| 20260905153407 | 78 | 197 | 1.0 | 8.0 | 0.00 | 0.00 | 0.00 | 66 | 1009.2 |
| 20260905151212 | 77 | 190 | 1.0 | 6.0 | 0.00 | 0.00 | 0.00 | 68 | 1009.2 |
| 20260905150150 | 77 | 141 | 1.0 | 6.0 | 0.00 | 0.00 | 0.00 | 69 | 1009.2 |
| 20260905145148 | 77 | 271 | 1.0 | 6.0 | 0.00 | 0.00 | 0.00 | 70 | 1009.2 |
| 20260905144205 | 77 | 239 | 0.0 | 3.0 | 0.00 | 0.00 | 0.00 | 70 | 1009.3 |
| 20260905143132 | 76 | 115 | 0.0 | 3.0 | 0.00 | 0.00 | 0.00 | 73 | 1009.3 |
| 20260905142121 | 74 | 174 | 1.0 | 8.0 | 0.00 | 0.00 | 0.00 | 77 | 1009.3 |
| 20260905141100 | 73 | 292 | 0.0 | 8.0 | 0.00 | 0.00 | 0.00 | 77 | 1009.3 |
| 20260905140052 | 73 | 188 | 1.0 | 6.0 | 0.00 | 0.00 | 0.00 | 77 | 1009.4 |
| 20260905135056 | 74 | 211 | 1.0 | 7.0 | 0.00 | 0.00 | 0.00 | 76 | 1009.3 |
| 20260905134034 | 73 | 116 | 1.0 | 6.0 | 0.00 | 0.00 | 0.00 | 77 | 1009.4 |
| 20260905133025 | 72 | 161 | 0.0 | 0.0 | 0.00 | 0.00 | 0.00 | 81 | 1009.5 |
| 20260905125713 | 71 | 163 | 0.0 | 0.0 | 0.00 | 0.00 | 0.00 | 80 | 1009.6 |
| 20260905124649 | 71 | 174 | 0.0 | 2.0 | 0.00 | 0.00 | 0.00 | 80 | 1009.6 |
| 20260905123616 | 71 | 165 | 0.0 | 2.0 | 0.00 | 0.00 | 0.00 | 80 | 1009.7 |
| 20260905122611 | 71 | 162 | 0.0 | 2.0 | 0.00 | 0.00 | 0.00 | 82 | 1009.7 |
| 20260905121557 | 69 | 208 | 0.0 | 0.0 | 0.00 | 0.00 | 0.00 | 84 | 1009.7 |
| 20260905120539 | 68 | 191 | 0.0 | 0.0 | 0.00 | 0.00 | 0.00 | 88 | 1009.6 |
| 20260905115524 | 67 | 163 | 0.0 | 0.0 | 0.00 | 0.00 | 0.00 | 89 | 1009.7 |
| 20260905114512 | 67 | 167 | 0.0 | 0.0 | 0.00 | 0.00 | 0.00 | 89 | 1009.6 |
| 20260905113506 | 66 | 167 | 0.0 | 0.0 | 0.00 | 0.00 | 0.00 | 92 | 1009.4 |
| 20260905112531 | 65 | 167 | 0.0 | 0.0 | 0.00 | 0.00 | 0.00 | 94 | 1009.2 |
| 20260905111535 | 64 | 167 | 0.0 | 0.0 | 0.00 | 0.00 | 0.00 | 97 | 1009.2 |
| 20260905110522 | 62 | 167 | 0.0 | 0.0 | 0.00 | 0.00 | 0.00 | 97 | 1009.0 |
| 20260905080441 | 69 | 169 | 0.0 | 0.0 | 0.00 | 0.00 | 0.00 | 80 | 1008.5 |
| 20260905074307 | 69 | 194 | 0.0 | 7.0 | 0.00 | 0.12 | 0.00 | 79 | 1008.4 |
| 20260905073304 | 69 | 184 | 1.0 | 4.0 | 0.00 | 0.32 | 0.00 | 79 | 1008.3 |
| 20260905072329 | 69 | 161 | 0.0 | 2.0 | 0.00 | 0.32 | 0.00 | 79 | 1008.4 |
| 20260905071343 | 69 | 155 | 0.0 | 3.0 | 0.00 | 0.32 | 0.00 | 79 | 1008.5 |
| 20260905070338 | 70 | 153 | 0.0 | 2.0 | 0.00 | 0.32 | 0.00 | 79 | 1008.5 |
| 20260905065323 | 70 | 171 | 0.0 | 0.0 | 0.00 | 0.50 | 0.00 | 78 | 1008.5 |
| 20260905064307 | 70 | 225 | 0.0 | 1.0 | 0.00 | 0.55 | 0.00 | 79 | 1008.6 |
| 20260905063233 | 70 | 156 | 0.0 | 0.0 | 0.00 | 0.55 | 0.00 | 79 | 1008.6 |
| 20260905062212 | 70 | 222 | 0.0 | 2.0 | 0.00 | 0.69 | 0.00 | 80 | 1008.8 |
| 20260905061218 | 69 | 165 | 0.0 | 0.0 | 0.00 | 0.99 | 0.00 | 80 | 1008.8 |
| 20260905060159 | 69 | 167 | 0.0 | 5.0 | 0.00 | 1.01 | 0.00 | 81 | 1008.9 |
| 20260905055207 | 69 | 160 | 0.0 | 2.0 | 0.00 | 1.02 | 0.00 | 81 | 1009.0 |
| 20260905053051 | 69 | 149 | 0.0 | 2.0 | 0.00 | 1.09 | 0.00 | 82 | 1009.1 |
| 20260905050930 | 69 | 155 | 0.0 | 0.0 | 0.00 | 1.10 | 0.00 | 84 | 1009.3 |
| 20260905045937 | 69 | 152 | 0.0 | 1.0 | 0.00 | 1.11 | 0.00 | 85 | 1009.4 |
| 20260905044956 | 69 | 187 | 0.0 | 2.0 | 0.00 | 1.11 | 0.00 | 86 | 1009.5 |
| 20260905044000 | 68 | 186 | 0.0 | 0.0 | 0.00 | 1.11 | 0.00 | 90 | 1009.6 |
| 20260905043002 | 67 | 165 | 0.0 | 0.0 | 0.00 | 1.11 | 0.00 | 94 | 1009.7 |
| 20260905042001 | 67 | 165 | 0.0 | 0.0 | 0.00 | 1.11 | 0.00 | 97 | 1009.5 |
| 20260905041005 | 67 | 165 | 0.0 | 0.0 | 0.00 | 1.11 | 0.00 | 97 | 1009.7 |
| 20260905040020 | 67 | 165 | 0.0 | 0.0 | 0.00 | 1.11 | 0.00 | 98 | 1009.7 |
| 20260905033937 | 66 | 165 | 0.0 | 0.0 | 0.00 | 1.15 | 1.11 | 98 | 1009.6 |
| 20260905032920 | 66 | 143 | 0.0 | 0.0 | 0.00 | 1.21 | 1.11 | 98 | 1009.6 |
| 20260905031845 | 66 | 143 | 0.0 | 0.0 | 0.00 | 1.21 | 1.11 | 98 | 1009.7 |
| 20260905025645 | 67 | 143 | 0.0 | 0.0 | 0.00 | 1.21 | 1.11 | 98 | 1009.6 |
| 20260905024618 | 67 | 143 | 0.0 | 0.0 | 0.00 | 1.21 | 1.11 | 97 | 1009.5 |
| 20260905023633 | 68 | 143 | 0.0 | 0.0 | 0.00 | 1.21 | 1.11 | 97 | 1009.5 |
| 20260905021530 | 68 | 143 | 0.0 | 0.0 | 0.00 | 1.21 | 1.11 | 97 | 1009.5 |
| 20260905020519 | 68 | 143 | 0.0 | 0.0 | 0.00 | 1.21 | 1.11 | 97 | 1009.6 |
| 20260905015452 | 68 | 143 | 0.0 | 0.0 | 0.00 | 1.21 | 1.11 | 97 | 1009.5 |
| 20260905014427 | 68 | 143 | 0.0 | 0.0 | 0.00 | 1.21 | 1.11 | 96 | 1009.5 |
| 20260905013412 | 68 | 143 | 0.0 | 0.0 | 0.00 | 1.21 | 1.11 | 96 | 1009.5 |
| 20260905012420 | 68 | 143 | 0.0 | 0.0 | 0.00 | 1.21 | 1.11 | 95 | 1009.5 |
| 20260905010214 | 69 | 143 | 0.0 | 0.0 | 0.00 | 1.21 | 1.11 | 94 | 1009.7 |
| 20260905004025 | 69 | 143 | 0.0 | 0.0 | 0.00 | 1.21 | 1.11 | 93 | 1009.5 |
| 20260905003030 | 70 | 143 | 0.0 | 0.0 | 0.00 | 1.21 | 1.11 | 92 | 1009.4 |
| 20260905002000 | 71 | 143 | 0.0 | 0.0 | 0.00 | 1.21 | 1.11 | 91 | 1009.4 |
| 20260905000938 | 71 | 143 | 0.0 | 0.0 | 0.00 | 1.21 | 1.11 | 90 | 1009.3 |
| 20260904235922 | 72 | 143 | 0.0 | 0.0 | 0.00 | 1.21 | 1.11 | 89 | 1009.4 |
| 20260904234914 | 73 | 143 | 0.0 | 0.0 | 0.00 | 1.21 | 1.11 | 88 | 1009.3 |
| 20260904233855 | 74 | 144 | 0.0 | 0.0 | 0.00 | 1.21 | 1.11 | 86 | 1009.2 |
| 20260904232834 | 74 | 143 | 0.0 | 0.0 | 0.00 | 1.21 | 1.11 | 85 | 1009.2 |
| 20260904231814 | 75 | 143 | 0.0 | 0.0 | 0.00 | 1.21 | 1.11 | 83 | 1009.1 |
| 20260904230827 | 76 | 143 | 0.0 | 0.0 | 0.00 | 1.21 | 1.11 | 81 | 1009.1 |
| 20260904225829 | 76 | 143 | 0.0 | 0.0 | 0.00 | 1.21 | 1.11 | 80 | 1009.0 |
| 20260904224843 | 77 | 143 | 0.0 | 0.0 | 0.00 | 1.21 | 1.11 | 78 | 1009.1 |
| 20260904223825 | 78 | 142 | 0.0 | 0.0 | 0.00 | 1.21 | 1.11 | 75 | 1009.1 |
| 20260904222834 | 79 | 142 | 0.0 | 0.0 | 0.00 | 1.21 | 1.11 | 73 | 1009.1 |
| 20260904221810 | 80 | 143 | 0.0 | 0.0 | 0.00 | 1.21 | 1.11 | 70 | 1009.1 |
| 20260904215619 | 83 | 142 | 0.0 | 0.0 | 0.00 | 1.21 | 1.11 | 63 | 1008.9 |
| 20260904214609 | 84 | 142 | 0.0 | 0.0 | 0.00 | 1.21 | 1.11 | 59 | 1009.0 |
| 20260904212454 | 85 | 162 | 0.0 | 0.0 | 0.00 | 1.21 | 1.11 | 56 | 1008.9 |